KC0VVH Weather Reports


time (UTC)temp
C
wind
direction
speed
KPH
gust
KPH
rain 1hr
cm
rain 24hr
cm
rain mn
cm
humidity
%
barometer
mb
20260901230912 20 0 0.0 1.6 0.03 1.22 1.22 71 1016.5
20260901230012 19 0 0.0 1.6 0.03 1.22 1.22 77 1016.5
20260901225412 18 0 0.0 0.0 0.03 1.19 1.19 82 1016.5
20260901224512 17 239 1.6 12.9 0.10 1.19 1.19 78 1016.5
20260901223633 17 231 3.2 14.5 0.33 1.19 1.19 81 1016.5
20260901222712 17 232 1.6 8.0 0.79 1.19 1.19 80 1016.5
20260901221812 16 0 0.0 0.0 1.19 1.19 1.19 86 1016.5
20260901220912 16 0 0.0 1.6 1.19 1.19 1.19 86 1016.5
20260901220012 16 0 0.0 0.0 1.19 1.19 1.19 85 1016.5
20260901215412 16 0 0.0 0.0 1.17 1.17 1.17 83 1016.5
20260901214512 16 241 1.6 12.9 1.09 1.09 1.09 80 1016.5
20260901213612 16 229 9.7 41.8 0.86 0.86 0.86 76 1016.5
20260901212712 18 211 24.1 54.7 0.41 0.41 0.41 67 1016.5
20260901211812 25 210 6.4 40.2 0.00 0.00 0.00 51 1016.5
20260901210912 25 42 1.6 8.0 0.00 0.00 0.00 45 1016.5
20260901210012 26 47 1.6 11.3 0.00 0.00 0.00 44 1016.5
20260901205412 26 49 4.8 14.5 0.00 0.00 0.00 42 1016.5
20260901204512 27 52 4.8 14.5 0.00 0.00 0.00 43 1016.5
20260901203633 27 49 0.0 4.8 0.00 0.00 0.00 42 1016.5
20260901202712 26 44 1.6 11.3 0.00 0.00 0.00 43 1016.5
20260901201812 27 41 3.2 14.5 0.00 0.00 0.00 42 1016.5
20260901200933 26 46 4.8 14.5 0.00 0.00 0.00 42 1016.5
20260901200012 26 46 1.6 9.7 0.00 0.00 0.00 43 1016.5
20260901195433 26 40 3.2 11.3 0.00 0.00 0.00 44 1016.5
20260901194512 26 37 3.2 14.5 0.00 0.00 0.00 44 1016.5
20260901193633 26 34 4.8 14.5 0.00 0.00 0.00 44 1016.5
20260901192712 25 33 0.0 6.4 0.00 0.00 0.00 45 1016.5
20260901191833 25 34 1.6 8.0 0.00 0.00 0.00 45 1016.5
20260901190912 25 24 3.2 12.9 0.00 0.00 0.00 46 1016.5
20260901190012 25 17 0.0 6.4 0.00 0.00 0.00 45 1016.5
20260901185412 25 16 1.6 8.0 0.00 0.00 0.00 46 1016.5
20260901184533 25 15 3.2 8.0 0.00 0.00 0.00 46 1016.5
20260901183612 25 24 6.4 14.5 0.00 0.00 0.00 49 1016.5
20260901182733 25 38 4.8 9.7 0.00 0.00 0.00 50 1016.5
20260901181812 24 31 3.2 9.7 0.00 0.00 0.00 52 1016.5
20260901180912 23 33 3.2 9.7 0.00 0.00 0.00 55 1016.5
20260901180012 23 36 1.6 8.0 0.00 0.00 0.00 55 1016.5
20260901175433 23 36 1.6 9.7 0.00 0.00 0.00 58 1016.5
20260901174512 23 36 0.0 6.4 0.00 0.00 0.00 57 1016.5
20260901173633 22 36 1.6 9.7 0.00 0.00 0.00 58 1016.5
20260901172712 22 38 3.2 8.0 0.00 0.00 0.00 61 1016.5
20260901171812 22 38 1.6 8.0 0.00 0.00 0.00 62 1016.5
20260901170912 22 38 1.6 9.7 0.00 0.00 0.00 61 1016.5
20260901170012 22 40 0.0 6.4 0.00 0.00 0.00 60 1016.5
20260901165412 22 41 0.0 6.4 0.00 0.00 0.00 60 1016.5
20260901164512 22 41 1.6 8.0 0.00 0.00 0.00 64 1016.5
20260901163612 21 41 0.0 4.8 0.00 0.00 0.00 68 1016.5
20260901162712 20 42 1.6 6.4 0.00 0.00 0.00 68 1016.5
20260901161812 21 44 0.0 1.6 0.00 0.00 0.00 66 1016.5
20260901160912 21 0 0.0 0.0 0.00 0.00 0.00 67 1016.5
20260901160012 21 0 0.0 0.0 0.00 0.00 0.00 68 1016.5
20260901155412 21 0 0.0 0.0 0.00 0.00 0.00 67 1016.5
20260901154512 21 0 0.0 0.0 0.00 0.00 0.00 72 1016.5
20260901153633 20 0 0.0 1.6 0.00 0.00 0.00 72 1016.5
20260901152712 20 0 0.0 0.0 0.00 0.00 0.00 74 1016.5
20260901151812 19 0 0.0 0.0 0.00 0.00 0.00 77 1016.5
20260901150933 18 0 0.0 0.0 0.00 0.00 0.00 77 1016.5
20260901150012 19 0 0.0 0.0 0.00 0.00 0.00 75 1016.5
20260901145412 19 0 0.0 0.0 0.00 0.00 0.00 76 1016.5
20260901144512 19 0 0.0 0.0 0.00 0.00 0.00 76 1016.5
20260901143612 18 0 0.0 0.0 0.00 0.00 0.00 79 1016.5
20260901142712 17 0 0.0 0.0 0.00 0.00 0.00 82 1016.5
20260901141833 17 0 0.0 0.0 0.00 0.00 0.00 86 1016.5
20260901140912 16 0 0.0 0.0 0.00 0.00 0.00 89 1016.5
20260901140012 15 0 0.0 0.0 0.00 0.00 0.00 89 1016.5
20260901135412 15 0 0.0 0.0 0.00 0.00 0.00 89 1016.5
20260901134512 15 0 0.0 0.0 0.00 0.00 0.00 90 1016.5
20260901133612 15 0 0.0 0.0 0.00 0.00 0.00 92 1016.5
20260901132712 14 0 0.0 0.0 0.00 0.00 0.00 93 1016.5
20260901131812 14 0 0.0 0.0 0.00 0.00 0.00 93 1016.5
20260901130912 14 0 0.0 0.0 0.00 0.00 0.00 93 1016.5
20260901130012 14 0 0.0 0.0 0.00 0.00 0.00 93 1016.5
20260901125412 13 0 0.0 0.0 0.00 0.00 0.00 93 1016.5
20260901124533 13 0 0.0 0.0 0.00 0.00 0.00 93 1016.5
20260901123612 13 0 0.0 0.0 0.00 0.00 0.00 93 1016.5
20260901122712 13 0 0.0 0.0 0.00 0.00 0.00 93 1016.5
20260901121812 13 0 0.0 0.0 0.00 0.00 0.00 93 1016.5
20260901120912 13 0 0.0 0.0 0.00 0.00 0.00 92 1016.5
20260901120012 13 0 0.0 0.0 0.00 0.00 0.00 92 1016.5
20260901115412 13 0 0.0 0.0 0.00 0.00 0.00 92 1016.5
20260901114512 13 0 0.0 0.0 0.00 0.00 0.00 92 1016.5
20260901113633 13 0 0.0 0.0 0.00 0.00 0.00 92 1016.5
20260901112712 13 0 0.0 0.0 0.00 0.00 0.00 92 1016.5
20260901111812 14 0 0.0 0.0 0.00 0.00 0.00 91 1016.5
20260901110912 14 0 0.0 0.0 0.00 0.00 0.00 91 1016.5
20260901110033 14 0 0.0 0.0 0.00 0.00 0.00 91 1016.5
20260901105412 14 0 0.0 0.0 0.00 0.00 0.00 90 1016.5
20260901104534 14 0 0.0 0.0 0.00 0.00 0.00 90 1016.5
20260901103612 14 0 0.0 0.0 0.00 0.00 0.00 90 1016.5
20260901102712 14 0 0.0 0.0 0.00 0.00 0.00 89 1016.5
20260901101812 15 0 0.0 0.0 0.00 0.00 0.00 89 1016.5
20260901100933 15 0 0.0 0.0 0.00 0.00 0.00 89 1016.5
20260901100012 15 0 0.0 0.0 0.00 0.00 0.00 89 1016.5
20260901095412 15 0 0.0 0.0 0.00 0.00 0.00 89 1016.5
20260901094512 15 0 0.0 0.0 0.00 0.00 0.00 90 1016.5
20260901093612 15 0 0.0 0.0 0.00 0.00 0.00 90 1016.5
20260901092712 15 0 0.0 0.0 0.00 0.00 0.00 89 1016.5
20260901091812 15 0 0.0 0.0 0.00 0.00 0.00 88 1016.5
20260901090912 15 0 0.0 0.0 0.00 0.00 0.00 88 1016.5
20260901090012 15 0 0.0 0.0 0.00 0.00 0.00 86 1016.5
20260901085412 15 0 0.0 0.0 0.00 0.00 0.00 87 1016.5
20260901084513 16 0 0.0 0.0 0.00 0.00 0.00 87 1016.5
20260901083612 16 0 0.0 0.0 0.00 0.00 0.00 87 1016.5
20260901082713 16 0 0.0 0.0 0.00 0.00 0.00 87 1016.5
20260901081812 16 0 0.0 0.0 0.00 0.00 0.00 87 1016.5
20260901080933 15 0 0.0 0.0 0.00 0.00 0.00 87 1016.5
20260901080013 15 0 0.0 0.0 0.00 0.00 0.00 87 1016.5
20260901075412 15 0 0.0 0.0 0.00 0.00 0.00 86 1016.5
20260901074512 15 0 0.0 0.0 0.00 0.00 0.00 86 1016.5
20260901073613 15 0 0.0 0.0 0.00 0.00 0.00 86 1016.5
20260901072733 16 0 0.0 0.0 0.00 0.00 0.00 85 1016.5
20260901071812 16 0 0.0 0.0 0.00 0.00 0.00 84 1016.5
20260901070934 16 0 0.0 0.0 0.00 0.00 0.00 83 1016.5
20260901070013 16 0 0.0 0.0 0.00 0.00 0.00 82 1016.5
20260901065412 16 0 0.0 0.0 0.00 0.00 0.00 81 1016.5
20260901064512 16 0 0.0 0.0 0.00 0.00 0.00 80 1016.5
20260901063612 17 0 0.0 0.0 0.00 0.00 0.00 80 1016.5
20260901062712 17 0 0.0 0.0 0.00 0.00 0.00 79 1016.5
20260901061812 17 0 0.0 0.0 0.00 0.00 0.00 79 1016.5
20260901060912 16 0 0.0 0.0 0.00 0.00 0.00 81 1016.5
20260901060012 16 0 0.0 0.0 0.00 0.00 0.00 81 1016.5
20260901055434 16 0 0.0 0.0 0.00 0.00 0.00 80 1016.5
20260901054512 16 0 0.0 0.0 0.00 0.00 0.00 81 1016.5
20260901053612 16 0 0.0 0.0 0.00 0.00 0.00 81 1016.5
20260901052713 16 0 0.0 0.0 0.00 0.00 0.00 81 1016.5
20260901051812 17 0 0.0 0.0 0.00 0.00 0.00 80 1016.5
20260901050912 17 0 0.0 0.0 0.00 0.00 0.00 80 1016.5
20260901050012 17 0 0.0 0.0 0.00 0.00 0.00 80 1016.5
20260901045412 17 0 0.0 0.0 0.00 0.00 0.00 79 1016.5
20260901044512 17 0 0.0 0.0 0.00 0.00 0.00 79 1016.5
20260901043612 17 0 0.0 0.0 0.00 0.00 0.00 78 1016.5
20260901042712 18 0 0.0 0.0 0.00 0.00 0.00 78 1016.5
20260901041812 18 0 0.0 0.0 0.00 0.00 0.00 77 1016.5
20260901040933 18 0 0.0 0.0 0.00 0.00 0.00 76 1016.5
20260901040012 18 0 0.0 0.0 0.00 0.00 0.00 75 1016.5
20260901035412 18 0 0.0 0.0 0.00 0.00 0.00 75 1016.5
20260901034512 19 0 0.0 0.0 0.00 0.00 0.00 75 1016.5
20260901033613 19 0 0.0 0.0 0.00 0.00 0.00 69 1016.5
20260901032713 19 0 0.0 0.0 0.00 0.00 0.00 71 1016.5
20260901031812 19 0 0.0 0.0 0.00 0.00 0.00 69 1016.5
20260901030912 19 0 0.0 0.0 0.00 0.00 0.00 70 1016.5
20260901030012 20 0 0.0 0.0 0.00 0.00 0.00 67 1016.5
20260901025412 19 0 0.0 0.0 0.00 0.00 0.00 66 1016.5
20260901024533 19 0 0.0 0.0 0.00 0.00 0.00 67 1016.5
20260901023634 20 0 0.0 0.0 0.00 0.00 0.00 66 1016.5
20260901022712 20 0 0.0 0.0 0.00 0.00 0.00 66 1016.5
20260901021812 20 0 0.0 0.0 0.00 0.00 0.00 66 1016.5
20260901020912 20 0 0.0 0.0 0.00 0.00 0.00 66 1016.5
20260901020012 20 0 0.0 0.0 0.00 0.00 0.00 65 1016.5
20260901015412 20 0 0.0 0.0 0.00 0.00 0.00 65 1016.5
20260901014513 20 0 0.0 0.0 0.00 0.00 0.00 64 1016.5
20260901013613 20 0 0.0 0.0 0.00 0.00 0.00 64 1016.5
20260901012712 20 0 0.0 0.0 0.00 0.00 0.00 63 1016.5
20260901011813 20 0 0.0 0.0 0.00 0.00 0.00 62 1016.5
20260901010913 20 0 0.0 0.0 0.00 0.00 0.00 63 1016.5
20260901010013 20 0 0.0 0.0 0.00 0.00 0.00 62 1016.5
20260901005434 21 0 0.0 0.0 0.00 0.00 0.00 61 1016.5
20260901004513 21 0 0.0 0.0 0.00 0.00 0.00 59 1016.5
20260901003612 21 0 0.0 0.0 0.00 0.03 0.00 60 1016.5
20260901002712 21 0 0.0 0.0 0.00 0.03 0.00 60 1016.5
20260901001812 21 0 0.0 0.0 0.00 0.05 0.00 60 1016.5
20260901000913 21 0 0.0 0.0 0.00 0.13 0.00 61 1016.5
20260901000012 21 0 0.0 0.0 0.00 0.25 0.00 60 1016.5
20260831235412 21 0 0.0 0.0 0.00 0.33 0.00 60 1016.5
20260831234512 21 0 0.0 0.0 0.00 0.46 0.00 60 1016.5
20260831233613 21 0 0.0 0.0 0.00 0.51 0.00 60 1016.5
20260831232712 21 0 0.0 0.0 0.00 0.51 0.00 60 1016.5
20260831231812 21 0 0.0 1.6 0.00 0.51 0.00 60 1016.5